EW5297 Weather Reports


Display with metric or nautical units.
time (UTC)temp
F
wind
direction
speed
MPH
gust
MPH
rain 1hr
in
rain 24hr
in
rain mn
in
humidity
%
barometer
mb
20260505233320 61 345 0.0 0.0 0.00 1.73 0.03 93 457.3
20260505231819 61 345 0.0 0.0 0.00 1.73 0.03 93 457.3
20260505230317 61 345 0.0 0.0 0.00 1.73 0.03 94 457.3
20260505224817 61 67 0.0 0.0 0.00 1.73 0.03 94 457.3
20260505161811 60 140 0.0 0.0 0.00 1.57 0.00 93 457.3
20260505160328 61 140 0.0 0.0 0.00 1.57 0.00 93 457.3
20260505153323 61 140 0.0 0.0 0.00 1.57 0.00 93 457.3
20260505151818 62 139 0.0 2.0 0.00 1.57 0.00 93 457.3
20260505150316 62 139 0.0 2.0 0.00 1.57 0.00 93 457.3
20260505140329 63 161 0.0 0.0 0.00 1.57 0.00 93 457.3
20260505124822 63 227 0.0 0.0 0.12 1.57 0.31 93
20260505123319 63 227 0.0 0.0 0.16 1.54 0.31 93
20260505121841 63 227 0.0 0.0 0.20 1.54 0.31 93
20260505120318 63 227 0.0 0.0 0.16 1.50 0.30 92
20260505114815 63 227 0.0 0.0 0.16 1.46 0.29 92
20260505113316 64 227 0.0 0.0 0.12 1.38 0.28 92
20260505111813 64 227 0.0 0.0 0.08 1.34 0.27 92 829.4
20260505110336 64 227 0.0 0.0 0.12 1.34 0.27 92
20260505101829 64 227 0.0 0.0 0.12 1.26 0.25 92
20260505100325 64 227 0.0 0.0 0.08 1.22 0.24 92
20260505094823 64 227 0.0 0.0 0.04 1.18 0.24 92
20260505093323 64 227 0.0 0.0 0.04 1.14 0.23 92
20260505091820 64 227 0.0 0.0 0.04 1.14 0.23 92
20260505084849 65 227 0.0 0.0 0.20 1.14 0.23 92
20260505083324 64 227 0.0 0.0 0.20 1.10 0.22 92
20260505081825 65 227 0.0 0.0 0.28 1.10 0.22 92
20260505080322 65 227 0.0 0.0 0.28 0.98 0.20 91
20260505074819 65 227 0.0 1.0 0.24 0.94 0.19 91
20260505073319 65 227 0.0 2.0 0.24 0.91 0.18 91
20260505071817 65 227 0.0 0.0 0.20 0.83 0.17 91
20260505070315 65 227 0.0 0.0 0.08 0.71 0.14 91
20260505063323 65 209 0.0 2.0 0.28 0.67 0.13 90
20260505061820 65 140 0.0 0.0 0.39 0.63 0.13 90
20260505060322 66 147 0.0 0.0 0.55 0.63 0.13 89
20260505054820 66 147 0.0 0.0 0.55 0.55 0.11 89
20260505053323 66 147 0.0 0.0 0.39 0.39 0.08 89
20260505051820 67 145 0.0 0.0 0.24 0.24 0.05 87
20260505050317 67 146 0.0 3.0 0.08 0.08 0.02 86
20260505040316 71 170 3.0 10.0 0.00 0.00 0.00 79
20260505034812 72 138 1.0 5.0 0.00 0.00 0.00 78
20260505033314 73 200 4.0 10.0 0.00 0.00 0.00 74
20260505031813 73 159 2.0 7.0 0.00 0.00 0.00 75
20260505030311 72 153 4.0 8.0 0.00 0.00 0.00 74
20260505024813 73 165 5.0 11.0 0.00 0.00 0.00 71
20260505023329 73 149 2.0 9.0 0.00 0.00 0.00 70
20260505021829 74 142 3.0 5.0 0.00 0.00 0.00 76
20260505020327 73 155 1.0 5.0 0.00 0.00 0.00 78
20260505014825 72 156 1.0 2.0 0.00 0.00 0.00 79
20260505013325 73 153 0.0 0.0 0.00 0.00 0.00 78
20260505011822 74 139 2.0 7.0 0.00 0.00 0.00 73
20260505010319 75 148 2.0 3.0 0.00 0.00 0.00 73
20260505004819 73 143 1.0 4.0 0.00 0.00 0.00 72
20260505003318 72 171 2.0 3.0 0.00 0.00 0.00 78
20260505001838 70 184 1.0 3.0 0.00 0.00 0.00 87
20260505000315 68 328 0.0 0.0 0.00 0.00 0.00 91 1023.4
20260504234813 68 328 0.0 0.0 0.00 0.04 0.00 93 1023.4